Raleigh-Durham Airport, NC

11:39 PM EDT on March 23, 2017 (GMT -0400)
Raleigh-Durham International

Weather History for KRDU - February, 2012

Change the Weather History Date:

Friday, February 17, 2012

  Actual Average Record
Temperature  
Mean Temperature 53 °F 45 °F  
Max Temperature 63 °F 56 °F 78 °F (1927)
Min Temperature 42 °F 34 °F 7 °F (1958)
Degree Days  
Heating Degree Days 12 20  
Month to date heating degree days 336 367  
Since 1 July heating degree days 1963 2364  
Cooling Degree Days 0 0  
Month to date cooling degree days 0 0  
Year to date cooling degree days 0 0  
Growing Degree Days 3 (Base 50)    
Moisture  
Dew Point 42 °F    
Average Humidity 68    
Maximum Humidity 100    
Minimum Humidity 36    
Precipitation  
Precipitation 0.00 in 0.12 in 1.55 in (1998)
Month to date precipitation 0.65 1.90  
Year to date precipitation 2.61 5.40  
Snow  
Snow 0.00 in 0.10 in 5.00 in (1902)
Month to date snowfall 0.0 1.3  
Since 1 July snowfall 0.0 4.9  
Snow Depth 0.00 in    
Sea Level Pressure  
Sea Level Pressure 30.07 in    
Wind  
Wind Speed 2 mph (NW)    
Max Wind Speed 9 mph    
Max Gust Speed 16 mph    
Visibility 8 miles    
Events Fog    
T = Trace of Precipitation, MM = Missing Value Source: NWS Daily Summary

Daily Weather History Graph

Daily Weather History Graph

Search for Another Location

Airport or City:

Trip Planner

Search our weather history database for the weather conditions in past years. The results will help you decide how hot, cold, wet, or windy it might be!

Date:

Astronomy

Feb. 17, 2012 Rise Set
Actual Time 7:00 AM EST 5:58 PM EST
Civil Twilight 6:34 AM EST 6:24 PM EST
Nautical Twilight 6:04 AM EST 6:54 PM EST
Astronomical Twilight 5:34 AM EST 7:24 PM EST
Moon 3:44 AM EST (2/17) 1:55 PM EST (2/17)
Length of Visible Light 11h 49m
Length of Day
10h 57m
Waning Crescent, 19% of the Moon is Illuminated
Feb 17
Waning Crescent
Feb 21
New
Feb 29
First Quarter
Mar 8
Full
Mar 14
Last Quarter

Hourly Weather History & Observations

Time (EST) Temp. Dew Point Humidity Pressure Visibility Wind Dir Wind Speed Gust Speed Precip Events Conditions
12:51 AM 50.0 °F 48.0 °F 93% 30.03 in 0.1 mi WNW 4.6 mph - N/A Fog Fog
1:51 AM 48.9 °F 48.0 °F 97% 30.03 in 0.1 mi NW 3.5 mph - N/A Fog Fog
2:51 AM 48.9 °F 48.0 °F 97% 30.04 in 0.1 mi Calm Calm - N/A Fog Fog
3:51 AM 48.9 °F 48.0 °F 97% 30.05 in 0.1 mi Calm Calm - N/A Fog Fog
4:40 AM 48.2 °F 46.4 °F 93% 30.04 in 3.0 mi Calm Calm - N/A   Mostly Cloudy
4:51 AM 46.9 °F 45.0 °F 93% 30.05 in 3.0 mi Calm Calm - N/A   Scattered Clouds
5:51 AM 46.9 °F 45.0 °F 93% 30.04 in 7.0 mi Calm Calm - N/A   Partly Cloudy
6:51 AM 43.0 °F 41.0 °F 93% 30.06 in 10.0 mi Calm Calm - N/A Fog Patches of Fog
7:51 AM 44.1 °F 42.1 °F 93% 30.09 in 10.0 mi Calm Calm - N/A Fog Patches of Fog
8:51 AM 48.0 °F 46.0 °F 93% 30.10 in 10.0 mi Calm Calm - N/A   Mostly Cloudy
9:51 AM 55.4 °F 44.6 °F 67% 30.10 in 10.0 mi Variable 3.5 mph - N/A   Mostly Cloudy
10:51 AM 57.2 °F 42.8 °F 59% 30.11 in 10.0 mi Variable 6.9 mph - N/A   Mostly Cloudy
11:51 AM 57.9 °F 39.9 °F 51% 30.10 in 10.0 mi WNW 4.6 mph - N/A   Mostly Cloudy
12:51 PM 60.1 °F 39.9 °F 47% 30.07 in 10.0 mi West 5.8 mph - N/A   Mostly Cloudy
1:51 PM 62.6 °F 39.2 °F 42% 30.05 in 10.0 mi Variable 5.8 mph - N/A   Mostly Cloudy
2:51 PM 62.1 °F 37.9 °F 41% 30.03 in 10.0 mi WNW 8.1 mph - N/A   Scattered Clouds
3:51 PM 63.0 °F 37.0 °F 38% 30.03 in 10.0 mi North 6.9 mph - N/A   Scattered Clouds
4:51 PM 62.1 °F 36.0 °F 38% 30.04 in 10.0 mi NW 4.6 mph - N/A   Partly Cloudy
5:51 PM 57.9 °F 37.0 °F 46% 30.05 in 10.0 mi Calm Calm - N/A   Partly Cloudy
6:51 PM 52.0 °F 37.0 °F 57% 30.07 in 10.0 mi North 3.5 mph - N/A   Partly Cloudy
7:51 PM 48.9 °F 37.9 °F 66% 30.09 in 10.0 mi Calm Calm - N/A   Partly Cloudy
8:51 PM 46.0 °F 37.9 °F 73% 30.09 in 10.0 mi Calm Calm - N/A   Partly Cloudy
9:51 PM 46.0 °F 37.9 °F 73% 30.11 in 10.0 mi Calm Calm - N/A   Mostly Cloudy
10:51 PM 45.0 °F 37.9 °F 76% 30.11 in 10.0 mi Calm Calm - N/A   Mostly Cloudy
11:51 PM 45.0 °F 37.9 °F 76% 30.11 in 10.0 mi Calm Calm - N/A   Mostly Cloudy